Theta_e
310 310 310 310 310 310 311 311 312 313 314 314 315 316 317 319 320 320 320 317 313 314 314 312 316 321 323 324 326 327 327 327 326 326 325 326 325 325 325 325 326 325 325 324 325 331 333 332 332 332 330 328 328 330 330 330 330 330 332 333 333 334 334 333 334 332 328 325 324 324 325 325 325 323 323 324 323 324 324 322 325 324 323 326 325 322 319 319
310 310 310 310 310 310 310 311 311 312 313 314 314 315 316 318 319 320 320 319 315 313 316 316 317 321 322 323 325 325 327 327 327 327 326 327 327 325 325 325 325 325 325 324 325 330 333 333 332 332 330 329 329 330 330 330 330 331 333 334 333 334 333 330 331 330 327 325 323 323 324 324 325 324 323 323 323 323 325 324 324 325 325 325 325 323 320 319
309 310 310 310 310 310 310 311 311 312 313 313 313 314 315 317 318 319 320 320 317 313 314 316 320 322 321 322 324 325 326 327 327 327 327 327 327 326 325 325 325 324 324 324 326 330 332 332 333 332 330 329 329 329 330 330 330 331 332 334 333 332 332 330 329 327 326 325 324 323 323 323 324 325 323 323 324 324 324 324 323 324 326 325 324 323 321 320
309 310 310 310 311 310 310 312 311 311 313 313 313 313 314 315 317 318 319 320 319 316 314 314 317 321 322 322 323 324 326 327 327 327 327 327 327 327 326 326 326 324 323 324 326 330 331 332 333 332 331 330 329 329 329 330 330 331 332 333 333 331 331 330 328 326 325 325 325 324 322 322 323 324 324 323 324 325 325 325 324 324 325 324 325 324 321 320
308 309 310 310 310 311 311 311 311 311 312 313 313 313 313 314 315 316 318 319 319 318 316 314 313 319 323 322 321 324 327 329 329 326 325 326 327 327 327 326 326 325 323 323 325 328 330 332 332 332 332 330 329 329 329 329 330 331 331 332 331 331 331 329 327 324 324 325 325 325 323 323 323 324 324 324 324 325 324 325 325 325 325 325 325 324 323 321
308 308 309 310 310 311 311 311 311 311 312 313 314 313 312 313 314 315 317 318 319 319 317 314 313 316 321 322 322 324 327 328 328 327 325 324 325 326 327 327 327 325 323 323 324 326 328 330 331 331 331 330 330 329 328 328 329 330 331 330 331 331 330 329 326 324 324 325 325 325 324 323 323 324 323 323 323 324 324 324 324 325 326 326 327 326 323 322
307 308 309 309 310 310 310 310 311 311 312 313 314 314 313 312 313 314 316 317 318 320 318 315 313 315 318 321 323 324 327 326 324 325 325 324 324 324 326 326 327 326 324 322 324 327 328 328 330 331 331 330 330 329 328 328 328 330 330 330 330 331 331 329 325 325 324 324 325 324 324 324 324 325 324 323 323 323 323 323 324 323 324 326 329 328 323 322
307 307 308 308 308 309 310 310 311 311 311 312 313 314 313 312 312 312 315 317 318 319 319 315 314 315 317 319 322 324 325 325 323 322 322 324 325 325 326 326 327 326 324 322 325 327 328 329 329 331 332 331 331 329 329 329 328 329 329 329 329 330 331 328 325 325 325 324 325 324 325 326 326 325 323 323 323 323 323 323 323 323 322 322 326 328 324 322
307 307 307 307 308 308 309 310 310 310 311 312 312 313 313 313 311 311 314 316 317 319 319 316 314 315 317 318 321 324 322 320 321 320 320 322 323 325 326 326 326 326 325 322 324 328 328 328 329 330 331 331 331 330 330 330 329 328 328 328 328 329 329 328 327 326 325 325 325 325 326 328 327 325 325 325 325 324 324 323 323 323 322 321 323 325 325 324
306 306 306 307 307 308 308 309 310 310 311 311 312 312 313 313 312 311 313 315 316 318 319 317 315 315 317 318 320 323 322 321 322 321 320 321 322 324 325 326 326 326 326 322 323 327 329 328 327 329 330 331 330 331 331 330 329 328 329 328 328 329 329 328 328 327 327 326 326 326 327 329 326 324 327 328 327 328 326 324 323 323 322 322 322 323 324 324
306 306 306 307 307 307 307 308 309 310 310 311 311 312 312 313 313 312 313 314 315 316 319 319 317 316 317 319 320 321 321 322 324 324 322 321 322 324 323 325 325 325 325 324 323 325 328 328 327 328 329 330 330 331 331 330 329 329 328 328 328 329 329 328 327 327 328 327 327 326 327 328 326 325 327 328 328 329 327 325 323 322 322 322 323 323 323 324
306 307 307 307 307 307 307 307 308 309 309 310 311 311 312 312 313 312 313 315 315 315 318 319 318 316 316 320 321 319 320 321 322 325 324 321 323 323 322 324 325 325 324 325 324 324 327 328 326 327 328 329 330 330 330 329 330 329 328 329 329 329 329 329 327 327 327 327 327 327 328 328 328 327 327 327 328 327 326 324 323 322 321 321 322 322 323 323
307 307 307 307 307 307 307 307 307 308 309 310 310 311 311 312 313 311 312 315 315 315 317 319 319 317 317 319 319 316 319 320 322 325 324 324 324 323 323 324 325 326 325 326 327 325 326 328 327 327 327 328 329 329 328 327 329 330 328 328 330 330 330 328 328 328 327 328 327 327 330 330 329 329 329 328 329 328 327 325 324 323 322 322 322 322 322 323
306 307 307 307 307 307 307 307 307 307 308 309 309 310 311 312 313 312 312 314 315 315 317 319 319 317 317 318 316 315 318 319 321 325 325 325 325 325 324 323 324 327 327 327 328 328 327 328 328 327 327 328 328 328 328 327 328 329 329 329 330 331 331 328 328 328 327 328 327 327 330 331 329 330 330 330 330 329 329 328 327 327 326 325 324 323 323 323
305 306 306 306 306 306 307 307 307 307 308 308 308 309 310 311 312 312 313 314 315 316 317 319 319 318 318 317 316 316 317 318 321 323 325 326 326 327 326 324 324 326 328 327 327 329 328 327 327 327 327 328 328 329 328 328 327 328 331 331 330 331 331 329 328 328 328 328 327 328 330 330 329 329 330 331 330 329 329 329 330 329 329 329 327 326 325 324
305 305 305 306 306 306 306 306 307 307 307 308 308 309 309 310 311 312 313 313 314 316 317 319 320 318 318 318 317 317 317 318 320 320 324 325 326 327 326 326 324 324 327 327 327 328 328 328 327 326 327 328 328 329 330 331 330 328 330 331 331 331 331 330 329 329 328 327 326 328 330 330 329 329 329 330 330 330 329 329 330 329 329 329 330 329 328 327
305 305 305 305 305 306 305 305 306 306 307 307 308 308 309 309 310 312 313 313 314 315 316 318 320 318 318 318 317 318 318 318 318 319 321 323 325 326 327 327 326 326 327 326 327 328 327 327 328 328 328 328 328 329 331 332 332 330 329 330 330 331 330 330 330 329 328 328 327 327 329 329 329 329 328 329 329 329 329 328 328 328 328 328 329 329 329 329
304 304 304 304 305 305 305 305 305 305 306 307 307 308 308 309 310 311 313 314 314 315 316 317 318 319 318 317 317 318 318 318 319 319 318 320 323 325 326 327 326 326 325 325 325 326 327 326 326 329 330 329 327 328 330 330 330 330 330 330 330 329 329 329 329 329 328 328 328 328 328 328 328 328 327 327 327 327 327 327 327 326 326 327 327 328 328 328
304 305 305 304 304 305 305 305 304 305 306 306 306 307 308 309 310 311 312 313 314 315 317 317 317 318 319 317 316 317 318 319 319 319 318 318 320 324 326 326 326 326 324 325 325 325 327 326 325 329 330 329 328 327 328 327 328 329 328 329 329 329 328 328 328 327 327 328 328 328 327 327 327 327 326 326 326 325 325 325 325 326 325 325 326 326 327 327
305 305 305 304 304 304 304 305 305 304 305 306 306 307 309 310 311 311 312 312 314 315 316 317 316 316 318 318 316 316 318 320 320 320 319 317 319 324 326 326 325 325 324 325 325 325 326 327 327 328 329 328 327 327 326 326 326 327 328 328 327 327 327 326 327 326 325 326 327 327 326 326 326 325 325 325 325 324 324 324 324 325 325 324 325 325 325 326
304 304 304 304 304 304 304 305 305 305 305 306 306 307 309 310 310 311 311 311 312 314 315 317 316 315 316 318 319 317 317 321 321 320 319 318 322 325 325 325 325 326 325 324 325 325 327 328 328 327 326 327 326 326 325 325 326 326 327 327 327 326 326 326 326 325 324 325 326 326 325 325 325 325 324 324 324 324 323 323 324 324 324 324 324 325 325 324
303 304 304 304 303 304 304 305 305 305 305 306 306 307 308 308 309 311 311 311 312 312 313 315 316 317 316 316 319 318 318 321 322 321 321 321 325 326 325 324 326 326 324 324 325 325 327 328 327 326 326 326 326 325 325 325 326 326 327 327 327 327 326 326 325 324 323 325 325 325 325 324 324 324 323 323 323 323 324 323 323 324 323 323 323 324 324 324
302 303 303 303 303 303 304 305 305 306 306 306 307 307 307 307 308 311 311 312 312 311 312 314 315 316 317 316 318 319 319 321 321 322 323 323 324 324 324 325 326 326 325 325 325 326 327 326 325 325 325 325 326 326 326 326 326 327 327 326 327 327 327 326 326 325 323 324 325 325 325 324 323 324 323 323 322 322 323 323 323 323 323 323 322 322 322 322
302 302 303 303 302 302 303 305 306 306 306 306 306 306 306 307 308 310 311 311 312 313 312 313 314 315 316 317 317 318 320 320 320 322 323 324 324 323 324 325 325 326 326 325 325 325 326 325 323 324 324 325 326 326 326 327 327 327 327 327 327 327 327 326 327 326 323 323 323 324 325 324 323 323 323 322 323 322 322 323 323 323 323 322 322 322 321 321
302 302 302 302 302 302 303 305 306 306 306 306 306 305 306 307 308 310 310 310 312 313 313 313 314 314 315 316 316 317 319 319 320 322 322 323 323 324 324 324 324 325 325 325 325 325 324 323 323 324 324 325 326 326 327 327 327 327 327 327 327 326 327 327 327 326 326 327 324 324 327 327 323 323 323 322 322 322 321 321 322 322 322 322 322 321 321 321
302 301 301 302 302 302 303 305 305 305 306 306 306 306 306 307 308 309 310 311 311 313 315 314 314 315 315 316 317 317 318 318 318 320 322 322 321 323 324 324 324 324 324 325 325 325 324 323 323 324 324 325 326 326 326 326 327 327 327 326 326 326 327 327 327 326 328 328 325 323 327 327 325 324 324 322 322 322 321 321 321 321 322 321 321 321 321 321
301 301 301 301 302 302 303 305 305 306 306 306 305 306 306 306 307 308 309 311 312 314 315 314 314 315 315 316 317 316 318 319 318 319 321 321 322 322 323 324 324 324 324 324 326 326 324 323 324 324 324 325 326 326 325 325 327 327 326 326 326 326 327 328 327 326 327 328 326 324 326 327 326 324 323 323 322 321 321 321 321 321 322 322 322 322 322 321
300 300 301 300 301 302 303 305 306 306 306 306 306 306 306 307 307 309 309 311 313 314 314 313 314 314 315 316 316 316 318 318 319 319 319 320 323 322 322 323 324 324 324 325 327 327 324 323 324 324 325 325 325 325 324 324 326 326 328 329 327 326 327 327 327 326 328 331 329 326 326 327 325 323 322 322 321 321 320 320 321 321 322 323 322 323 322 322
300 300 300 300 301 301 302 304 305 306 306 306 306 306 307 308 308 309 310 311 313 312 313 314 314 314 315 317 316 316 317 318 319 320 319 321 323 322 321 322 322 323 323 324 326 327 325 324 323 324 325 325 324 324 325 324 325 326 328 329 327 327 327 326 327 328 328 329 328 326 325 327 325 322 322 322 321 320 320 319 319 319 320 322 322 323 323 322
300 300 300 301 302 302 302 303 305 306 306 306 306 307 307 308 308 309 310 311 313 313 313 314 313 315 317 318 317 316 316 317 319 321 321 322 323 321 320 321 322 323 323 323 324 325 324 322 323 324 324 324 324 323 324 324 324 325 327 328 328 330 329 327 328 328 327 327 327 325 324 324 324 322 322 322 321 320 320 319 319 318 319 320 320 322 322 322
300 300 300 301 303 303 302 304 304 305 307 307 307 307 308 308 308 309 310 311 312 313 313 313 313 316 317 317 317 316 315 316 318 322 323 322 322 321 320 322 322 323 323 323 323 322 322 323 323 324 323 324 325 324 326 326 325 325 327 328 329 329 328 327 326 327 328 328 326 323 323 323 323 322 320 321 321 321 320 319 320 320 319 320 320 320 321 321
301 301 300 301 302 303 302 303 303 305 307 307 307 307 307 307 307 309 310 310 311 313 314 314 315 316 316 316 317 316 316 317 318 321 322 321 323 322 321 322 322 323 323 323 323 321 321 322 322 322 323 324 326 327 327 326 326 327 327 327 328 327 327 328 327 327 328 328 325 324 325 325 324 321 320 320 320 320 319 318 319 320 319 319 320 320 321 321
302 301 301 301 302 302 302 302 302 305 307 307 307 307 307 307 308 308 309 310 311 312 314 315 315 316 316 316 317 316 317 318 318 319 320 320 321 322 321 321 321 323 323 323 323 323 323 322 322 322 323 323 325 327 327 326 326 327 326 326 327 328 329 330 328 328 328 326 325 324 325 326 324 322 321 321 320 320 319 318 318 319 320 320 320 320 321 320
304 302 302 302 302 302 302 302 303 305 307 307 307 308 307 306 307 307 308 309 310 311 314 316 315 316 316 315 316 317 317 318 317 318 319 319 320 321 320 321 321 322 323 323 323 323 324 324 323 322 323 323 324 325 326 326 326 326 326 325 326 327 328 328 327 328 328 326 326 324 325 327 325 323 323 321 319 319 319 319 318 318 319 320 320 320 319 320
305 304 303 303 303 302 302 303 304 305 307 307 306 307 307 306 307 307 307 308 310 311 313 315 316 317 316 315 316 316 317 318 317 318 319 319 320 320 320 320 321 322 322 322 323 323 323 324 323 322 323 324 323 323 324 325 326 324 324 326 326 325 324 325 325 326 326 326 326 324 325 325 321 320 322 320 320 319 318 319 318 319 319 319 320 319 319 319
306 305 304 305 304 302 302 303 305 306 307 307 307 307 307 306 306 308 309 309 311 312 313 314 316 317 316 316 316 316 316 317 317 318 318 318 319 319 319 320 320 321 321 321 322 323 322 324 324 321 322 323 323 322 322 324 326 326 325 326 326 324 324 325 325 324 323 325 325 323 323 323 321 320 320 320 321 320 319 319 318 319 319 318 319 318 319 320
307 306 305 305 305 303 303 304 305 306 306 306 308 308 307 306 306 309 311 310 311 313 313 314 316 316 316 316 316 317 317 317 317 317 318 318 319 319 319 320 321 320 320 320 322 322 322 325 324 321 321 323 321 322 321 321 324 327 326 325 324 323 324 325 325 324 323 323 323 321 322 323 323 323 320 319 321 322 321 320 318 318 318 318 319 319 320 321
307 306 305 305 305 304 304 305 306 307 307 306 307 308 306 306 306 309 311 310 311 313 314 314 316 316 316 316 316 317 317 317 318 317 317 318 319 320 319 320 320 320 320 320 322 323 322 324 325 322 322 322 321 322 323 321 322 324 325 324 325 325 324 323 324 324 324 323 323 322 320 321 322 322 319 318 319 320 321 321 320 319 318 319 320 320 320 320
306 306 306 305 305 304 305 306 307 307 306 306 307 307 306 306 307 308 310 311 311 312 313 314 315 314 315 316 316 317 317 317 318 318 318 318 318 319 319 320 320 320 320 319 322 324 323 323 326 324 322 323 323 323 324 324 322 321 323 324 324 325 326 324 323 323 324 324 324 323 321 319 319 319 319 319 319 319 319 320 320 320 318 319 320 320 320 319
305 306 306 305 305 305 305 306 307 306 306 306 306 306 306 306 306 307 309 311 310 310 313 315 315 314 315 315 316 316 317 316 318 318 318 318 318 319 319 319 320 320 320 319 321 323 323 323 325 325 323 324 324 324 324 325 324 322 323 324 322 323 325 324 322 322 323 323 323 322 322 320 318 317 318 319 319 320 319 320 320 318 317 319 319 319 319 320
305 305 306 306 305 305 305 305 305 306 306 306 305 305 306 306 306 307 309 311 310 309 310 313 314 313 314 316 315 316 316 316 317 317 318 318 319 319 319 319 319 320 320 320 320 321 321 321 323 324 324 324 324 323 322 323 323 323 323 324 323 322 324 325 323 322 322 322 321 321 321 320 319 319 318 318 320 321 319 319 319 318 318 319 319 319 320 320
305 305 306 306 306 305 306 305 304 304 305 306 306 305 306 307 307 307 308 309 311 310 308 309 311 312 313 315 316 316 316 316 316 317 317 317 317 318 318 318 319 319 319 319 318 318 320 321 322 323 324 324 321 321 322 323 322 322 322 322 322 322 322 322 322 322 322 321 320 320 320 320 321 323 323 321 321 320 318 318 318 318 319 319 319 320 320 319
305 305 306 307 306 305 306 306 304 304 305 306 306 305 306 308 307 307 308 309 310 311 310 308 310 312 312 312 314 316 317 316 316 316 317 317 317 317 317 317 318 319 319 319 319 318 319 320 321 321 322 321 319 318 321 323 323 322 322 321 321 322 321 321 323 323 322 321 321 321 321 320 321 325 324 320 319 319 319 319 318 318 319 319 320 320 319 319
305 305 305 306 306 305 306 306 305 305 305 305 306 306 306 307 307 307 308 309 310 310 311 310 310 312 312 312 312 314 316 317 317 317 317 317 317 316 317 317 317 318 318 318 319 319 319 320 320 321 322 322 321 320 320 320 322 323 323 321 321 321 321 323 327 325 321 321 321 321 321 320 319 323 323 319 319 320 319 319 319 319 319 320 320 320 319 319
305 304 303 304 306 306 306 306 305 305 305 305 306 306 307 307 307 308 308 309 310 310 311 311 311 311 312 312 312 313 314 315 316 317 317 318 318 316 316 317 317 318 317 317 317 318 319 320 320 321 322 323 323 323 322 321 322 323 323 322 322 321 321 323 324 322 321 322 322 321 321 319 318 321 323 321 321 321 319 318 319 319 320 321 320 319 319 319
305 304 302 303 304 305 305 305 305 305 306 305 305 306 307 307 307 308 308 309 309 310 311 311 311 312 311 311 312 313 313 313 314 315 316 317 318 315 314 316 317 317 316 316 316 317 318 320 320 320 321 322 324 324 323 322 322 323 324 323 322 322 321 322 322 322 321 322 323 322 321 320 320 321 322 322 321 322 321 319 318 319 320 320 319 319 319 319
305 304 303 303 303 303 303 304 305 305 305 305 305 306 306 306 307 307 308 308 309 310 310 310 311 312 311 311 311 312 313 313 315 315 314 315 316 314 313 314 317 318 316 315 316 316 317 318 318 318 319 321 323 323 322 322 322 322 323 323 322 322 322 323 322 322 322 322 322 323 322 322 321 321 322 324 323 322 322 319 318 318 319 319 319 320 319 319
304 304 304 304 304 304 304 304 304 305 305 305 305 306 306 306 307 307 307 307 307 308 309 309 310 310 311 312 312 313 313 312 314 315 314 315 315 315 314 315 316 315 314 315 316 316 316 318 317 317 318 318 320 320 320 320 320 321 322 322 322 322 323 323 322 322 324 323 322 323 324 323 322 320 322 324 322 321 319 318 317 318 318 318 318 318 318 319
303 304 304 304 304 304 305 305 305 305 306 305 305 306 306 306 306 307 307 307 307 307 308 309 309 310 311 311 312 313 313 313 314 314 315 315 315 315 315 316 316 313 311 314 317 316 316 317 317 318 318 317 319 320 319 319 319 319 320 320 321 322 322 322 322 323 323 323 323 325 325 323 321 321 322 321 319 318 318 318 318 317 317 317 316 316 316 317
303 303 303 304 304 304 305 305 305 305 305 305 305 306 306 306 306 306 307 307 307 307 308 308 309 310 311 311 311 311 312 313 313 314 314 315 314 314 314 316 317 315 313 314 316 316 316 317 317 318 319 318 318 319 319 319 319 318 318 318 320 321 322 322 322 323 323 322 323 323 323 321 319 319 319 319 317 316 316 316 317 318 317 317 317 316 317 317
302 302 302 303 304 304 305 305 305 305 305 305 305 306 306 306 306 306 307 307 307 307 307 308 309 310 311 311 311 311 312 312 313 313 313 314 314 313 314 315 317 317 315 315 315 315 315 316 316 318 319 319 318 318 318 319 319 318 318 318 319 320 321 322 322 322 322 322 322 321 320 320 319 318 318 317 316 316 315 314 314 316 317 317 317 317 317 317
301 301 302 302 304 305 305 306 306 305 305 305 305 306 306 307 306 307 307 307 307 307 307 307 308 309 310 311 311 311 311 311 312 313 312 312 313 312 313 314 315 316 316 316 315 315 314 314 315 317 317 318 318 318 318 318 319 319 318 317 317 318 320 320 320 320 319 320 320 320 320 320 320 320 319 317 316 316 315 314 314 315 315 316 316 317 317 317
Wind_Speed
30 31 31 31 32 32 33 33 32 31 29 29 26 25 26 26 27 27 25 25 26 27 28 31 31 29 27 23 21 20 18 19 22 24 27 30 28 25 24 22 18 14 11 10 6 5 6 6 7 6 7 9 8 8 7 4 4 4 2 3 4 4 4 3 5 2 4 5 6 9 11 7 7 9 5 4 5 3 5 6 5 4 4 3 5 5 4 3
30 29 30 31 31 32 32 33 33 32 30 29 27 25 25 25 26 27 27 25 26 27 27 29 30 29 28 24 22 21 19 20 23 26 30 31 28 26 26 24 20 14 11 10 7 6 8 8 8 8 9 10 10 9 7 6 6 6 3 2 5 5 3 5 9 4 7 5 9 9 8 6 7 10 8 4 7 9 5 6 9 7 7 8 8 8 8 6
30 29 29 30 30 31 32 32 33 32 30 29 29 27 25 24 25 25 27 26 26 27 27 28 28 27 27 25 20 20 20 20 25 31 32 31 29 27 27 26 23 17 14 11 7 7 9 10 8 9 11 11 11 10 8 7 7 8 5 4 4 3 5 6 9 7 10 5 5 8 5 3 6 9 8 5 6 10 8 8 11 11 13 12 11 10 10 9
31 29 29 30 30 30 31 32 32 32 31 29 30 29 26 24 24 24 25 27 27 25 26 27 28 27 25 24 20 18 18 19 28 36 32 31 31 28 28 28 25 20 17 14 10 9 9 10 10 10 12 11 13 12 9 8 7 7 6 5 4 4 4 3 5 7 8 7 3 6 4 3 6 7 6 5 4 5 8 11 13 12 16 17 14 10 10 11
32 30 29 30 30 29 30 31 31 32 32 30 29 29 28 25 24 23 23 26 28 26 25 26 27 27 23 23 22 19 16 12 17 30 33 32 31 30 31 29 26 22 19 17 13 12 9 8 10 10 11 10 12 12 10 12 9 6 7 9 10 5 3 3 5 5 4 3 3 3 2 3 8 6 6 7 5 2 3 6 9 7 9 16 17 11 9 10
33 32 30 30 30 30 30 30 30 31 32 30 29 29 28 26 25 24 23 25 28 28 26 25 26 27 24 22 22 21 18 10 2 7 19 29 32 31 32 32 28 23 21 19 16 14 11 9 9 10 10 8 11 10 9 14 12 6 7 11 14 10 5 3 4 2 1 3 5 1 2 3 7 5 9 11 11 4 7 4 6 6 7 11 15 10 8 9
32 32 30 30 30 30 29 29 30 30 31 31 29 29 28 27 26 24 24 23 26 29 27 27 26 26 25 22 21 23 27 28 17 4 4 9 25 32 31 33 30 24 23 21 19 15 12 12 12 11 10 7 10 11 11 15 16 10 5 9 14 13 12 5 0 0 1 3 4 4 4 1 3 5 7 13 16 10 4 3 2 5 6 9 10 9 7 7
32 32 31 30 31 30 29 29 30 30 30 32 30 29 28 28 27 25 25 23 25 28 28 28 27 25 25 23 22 22 32 42 38 30 17 9 12 26 31 33 32 27 25 24 21 17 14 15 15 12 8 8 10 11 16 15 13 12 6 9 15 14 11 6 3 3 3 4 4 3 3 7 8 5 3 8 12 11 8 7 7 8 8 7 9 10 8 8
31 31 30 30 31 31 30 28 29 30 30 31 30 30 29 27 27 27 25 24 25 27 30 29 27 27 24 25 22 20 36 45 41 42 39 26 16 17 29 33 32 29 27 27 24 19 17 16 17 15 9 10 13 12 15 13 8 10 10 12 16 14 10 9 8 7 6 6 4 3 5 9 9 5 5 10 13 12 9 9 11 10 11 11 11 11 11 10
29 30 30 30 31 30 31 30 29 29 30 30 30 30 29 27 27 27 26 25 25 26 30 29 28 27 25 27 22 17 31 39 36 37 37 35 26 18 26 31 32 31 29 29 27 23 21 18 16 16 12 11 13 12 13 11 9 12 14 14 18 18 13 12 12 11 9 8 7 5 6 10 8 4 5 10 14 16 15 12 11 10 11 12 12 14 13 12
27 28 28 29 29 29 31 30 29 29 29 29 29 30 29 28 27 27 27 25 26 26 28 30 29 28 26 27 25 20 28 28 26 30 31 34 31 23 24 30 32 32 32 31 30 28 24 20 15 14 11 8 10 12 14 15 17 20 16 11 14 19 16 14 12 12 11 7 10 9 7 10 8 5 8 11 9 11 15 13 12 12 12 13 13 14 14 14
25 26 26 27 28 28 29 29 29 28 28 29 29 30 30 30 29 28 27 24 26 26 27 31 30 30 28 28 34 33 28 24 19 23 31 33 33 26 20 26 33 33 32 32 31 29 26 22 18 16 9 4 5 7 9 12 17 20 15 9 9 14 15 14 12 12 12 6 10 8 5 9 9 10 12 13 12 10 11 11 13 14 13 13 13 14 15 16
22 24 24 26 26 27 28 28 29 28 28 29 29 30 30 31 30 30 29 25 26 26 26 30 32 32 27 26 39 39 30 27 19 17 28 30 30 29 20 19 27 30 30 29 28 27 27 23 21 22 16 7 5 3 3 6 10 13 12 9 7 8 10 10 11 12 12 10 11 7 2 6 8 16 19 19 21 18 16 15 13 13 13 13 14 14 15 16
22 23 23 24 25 26 26 27 28 27 28 28 28 30 30 30 30 30 30 27 26 26 25 29 32 31 28 30 39 39 35 33 26 21 24 27 27 28 26 21 19 23 26 26 24 22 24 24 23 23 20 15 7 3 4 7 7 7 8 8 5 6 7 9 14 14 11 12 16 10 4 7 5 13 19 22 26 23 19 18 17 16 15 15 15 16 16 17
23 23 23 23 24 25 25 26 26 26 27 27 28 29 30 30 30 30 30 29 27 25 24 27 32 28 21 28 35 35 37 35 33 31 26 26 26 25 26 26 22 20 21 24 24 21 23 24 23 20 15 15 10 3 2 4 5 5 6 7 6 7 6 8 14 17 12 10 17 12 3 6 7 12 19 19 19 22 19 18 17 17 17 17 17 18 18 19
22 23 23 23 23 24 25 26 25 25 25 26 27 27 29 29 29 31 30 30 28 25 25 24 30 28 13 16 25 30 36 36 37 36 29 27 27 26 25 26 25 22 21 22 23 22 23 20 19 19 12 9 9 5 3 4 5 6 7 6 7 8 7 7 9 16 16 8 11 12 4 3 5 13 22 20 16 18 17 15 14 15 15 16 17 18 18 18
21 22 23 23 23 24 25 26 25 25 24 24 26 25 27 28 28 31 30 30 28 25 27 24 26 28 16 13 18 23 32 36 36 35 33 31 27 26 26 27 28 27 24 22 21 22 22 17 12 13 11 6 7 6 5 8 8 7 6 7 8 9 7 6 4 9 16 9 7 11 8 7 6 11 14 12 11 12 12 12 12 13 14 16 17 18 18 18
20 20 22 23 23 23 24 26 26 25 24 24 24 24 24 26 27 29 29 30 28 24 25 25 23 18 14 21 22 21 29 33 30 31 36 35 30 28 28 31 30 27 24 18 18 18 16 12 7 6 6 6 8 8 10 12 9 7 8 7 8 9 10 9 5 6 12 10 10 11 10 10 10 13 13 10 10 11 12 14 14 14 16 17 18 19 19 19
17 19 20 21 22 23 24 25 26 26 25 23 23 23 22 23 24 26 30 29 26 19 12 19 27 12 4 23 34 27 23 25 26 29 35 36 35 33 29 29 30 28 20 10 12 17 14 7 4 7 8 10 13 13 14 10 6 10 11 8 8 9 9 10 8 8 13 12 11 11 10 10 10 13 16 19 18 15 16 17 17 18 19 19 18 18 18 19
16 17 18 19 21 23 23 25 25 25 25 23 23 23 19 18 14 17 27 31 30 26 12 14 33 28 9 10 27 31 21 18 26 32 34 37 38 34 27 25 27 24 16 8 8 16 17 7 4 9 11 15 16 16 15 10 8 12 11 10 11 9 8 10 9 10 14 10 9 11 10 10 12 11 14 21 22 18 18 17 18 20 21 22 20 20 20 21
16 16 17 18 20 21 23 24 24 25 25 24 26 25 20 20 13 8 21 27 31 39 28 16 23 35 34 14 7 22 25 18 23 31 32 36 37 29 24 24 18 10 12 13 8 11 15 10 10 14 14 16 16 15 15 14 14 14 11 10 11 9 8 10 6 9 12 7 6 9 10 11 11 10 13 17 15 15 17 17 17 20 21 21 20 22 24 24
18 18 18 18 19 21 22 24 25 25 25 25 29 28 27 30 22 9 13 16 24 38 37 26 18 23 41 34 9 12 26 20 20 29 33 36 35 26 21 22 13 6 12 14 8 7 9 9 15 18 15 15 14 15 16 17 17 13 11 10 9 8 7 9 6 9 10 5 3 4 7 9 9 10 13 15 13 14 18 19 18 20 20 20 20 21 23 24
21 21 20 19 20 21 21 23 24 24 26 30 31 33 33 32 27 16 9 5 13 30 37 34 28 22 30 35 22 17 23 21 19 28 36 36 33 28 22 16 13 12 14 13 10 10 9 10 19 19 13 14 16 17 17 15 13 11 11 10 10 9 5 5 5 6 6 3 2 4 6 7 7 8 10 15 20 18 20 23 23 24 24 24 26 26 25 25
24 24 23 21 21 21 21 21 23 26 30 33 32 35 33 25 24 23 13 3 5 19 36 39 34 31 29 26 26 24 21 21 22 28 36 37 32 27 21 16 14 14 14 16 16 13 11 12 18 17 14 18 20 18 16 11 10 12 14 12 10 10 8 5 3 3 4 3 3 3 6 7 7 10 10 13 20 21 21 24 26 29 30 30 32 33 32 30
26 26 25 23 21 21 20 20 25 30 29 32 33 33 30 21 22 26 14 4 5 8 23 34 31 32 33 23 22 25 19 19 24 29 38 41 35 23 17 19 16 12 15 19 17 13 13 14 15 17 19 21 19 16 15 13 10 12 14 15 14 11 10 8 6 4 3 3 4 4 5 6 6 13 14 12 14 19 21 22 25 31 31 31 33 34 35 34
28 27 26 25 23 20 19 21 28 30 26 32 35 31 29 24 24 26 12 1 5 6 10 22 23 24 32 25 21 20 12 16 24 29 36 41 40 27 15 14 10 12 17 16 12 7 9 15 15 17 21 21 17 14 17 16 10 10 12 16 18 14 11 10 8 6 3 2 3 7 6 5 4 8 10 9 10 15 16 16 22 28 28 29 31 32 32 33
30 30 28 26 24 22 22 22 24 26 27 32 34 30 28 27 27 22 10 3 5 9 10 15 17 19 29 26 26 19 4 13 22 25 34 38 39 30 16 12 7 10 13 9 7 4 7 17 16 16 19 16 15 14 17 18 12 10 10 14 17 16 14 10 6 5 3 1 1 5 5 6 7 6 7 9 10 12 13 10 14 22 26 29 30 31 31 31
33 31 29 28 26 26 26 21 20 27 31 29 27 29 27 27 28 17 7 6 4 10 9 13 15 19 26 26 33 22 3 14 17 18 33 39 36 24 11 13 13 11 14 10 9 6 10 19 20 20 18 12 16 16 16 18 13 6 4 8 12 12 11 8 6 5 1 3 2 4 3 5 10 6 7 11 13 14 15 13 12 16 23 27 28 30 30 29
35 33 31 29 26 27 28 24 24 28 30 26 22 27 28 25 22 10 3 5 2 5 7 16 17 15 21 23 29 25 10 9 9 14 31 36 35 22 7 15 18 12 15 13 9 5 5 10 13 17 15 11 16 15 14 17 13 5 9 6 6 6 7 7 6 3 2 1 6 7 6 5 11 6 6 9 11 12 13 12 12 16 22 23 24 27 27 27
35 34 32 28 26 28 28 28 30 26 24 25 22 25 29 23 14 5 7 5 2 2 5 13 18 19 22 17 15 20 15 6 3 18 30 29 32 24 9 16 17 9 11 13 10 5 0 2 1 6 10 10 12 14 15 16 11 9 10 5 4 3 1 2 2 2 2 4 8 11 12 9 10 7 5 6 7 9 9 8 10 14 19 22 24 26 25 24
36 35 33 31 31 31 30 31 34 27 20 23 24 27 27 16 6 6 7 1 3 4 5 5 13 21 24 16 9 14 15 7 6 15 19 16 21 19 9 10 10 6 8 9 9 8 5 1 2 1 6 6 7 11 10 4 4 8 7 5 4 2 3 3 1 3 3 6 8 14 15 12 11 6 3 2 1 2 4 4 5 8 14 22 25 24 20 17
36 36 35 35 33 33 35 35 34 29 23 24 28 29 19 7 5 7 3 4 2 5 7 8 10 15 20 18 12 13 13 10 10 11 11 10 10 12 11 9 8 6 7 8 8 8 8 7 4 3 5 6 5 6 2 6 2 6 5 7 6 2 1 2 3 4 5 7 6 9 11 10 12 10 6 4 2 3 1 2 3 4 11 19 20 16 14 13
35 37 36 37 36 36 37 33 30 30 28 28 30 24 10 6 7 7 6 2 0 3 6 13 13 14 18 17 12 14 14 11 12 11 11 13 10 12 15 13 12 8 4 9 10 7 7 9 9 4 2 9 10 6 4 4 6 8 8 10 10 6 5 7 7 5 5 6 5 4 5 5 6 9 12 12 7 6 6 5 7 8 10 13 12 11 10 10
30 35 36 37 37 36 34 30 29 31 31 31 26 14 7 7 5 9 12 6 2 4 4 11 16 17 17 15 13 15 12 9 13 13 11 13 10 10 13 14 16 9 2 6 9 8 8 9 11 10 6 12 15 12 10 8 9 10 9 9 11 9 7 7 7 6 5 5 6 6 4 4 5 4 7 13 18 19 17 13 12 13 14 13 13 14 12 11
27 32 35 34 34 35 34 31 30 31 34 32 17 6 9 7 5 8 10 6 1 2 4 6 14 17 14 13 14 18 14 8 12 12 9 12 10 9 12 13 16 12 5 5 5 7 11 8 8 17 16 15 15 14 10 7 5 6 4 4 9 9 6 5 3 4 5 4 5 6 4 4 4 6 4 6 11 18 22 20 17 18 19 20 22 24 21 15
25 28 31 31 34 36 33 32 31 33 36 28 9 6 9 8 6 5 5 8 6 2 2 5 10 12 10 10 10 16 16 9 10 10 6 10 12 13 13 11 15 16 10 8 4 4 9 6 7 17 17 16 19 17 13 11 7 5 6 8 8 5 4 6 3 0 4 5 4 5 4 4 4 8 7 5 3 7 15 17 19 23 27 28 29 28 23 16
29 30 32 35 36 34 33 32 32 35 36 21 8 9 9 8 8 4 2 5 7 7 5 4 7 8 9 8 8 13 14 8 9 10 6 7 8 12 14 11 15 18 14 10 4 2 7 5 7 17 17 19 25 21 15 15 9 4 8 10 4 2 2 2 4 2 4 5 4 6 8 6 5 6 7 9 8 7 9 12 15 22 27 28 26 23 20 18
32 30 31 35 34 32 34 33 32 37 30 11 8 12 8 8 10 6 2 2 5 9 7 5 5 6 9 9 8 13 13 9 9 9 7 6 4 11 16 11 12 18 17 12 4 2 7 4 3 14 17 16 18 16 12 12 7 3 4 7 5 1 2 3 4 4 5 4 4 8 10 8 7 6 5 9 12 10 9 10 12 14 18 20 20 21 21 19
30 24 23 30 33 32 34 33 35 37 21 4 9 12 5 6 11 11 8 3 3 6 9 7 4 4 8 9 8 12 15 12 11 9 7 6 4 11 17 11 11 18 21 16 6 3 6 5 3 9 13 11 10 10 10 10 5 4 2 3 3 2 5 7 5 3 5 5 5 7 8 6 7 7 6 8 11 11 11 11 9 11 17 20 21 23 21 16
27 16 11 24 32 31 34 35 32 25 11 5 9 8 4 6 10 14 16 9 2 5 7 8 6 5 7 10 8 10 12 13 12 9 8 8 6 8 14 13 10 15 20 17 9 3 4 5 4 5 8 9 7 8 12 14 11 6 5 6 5 3 2 4 6 5 4 5 5 7 8 5 5 6 9 11 10 10 13 12 11 14 20 23 22 20 17 14
24 8 4 18 28 30 34 30 19 9 6 7 8 6 6 5 6 13 17 13 8 6 5 4 5 5 5 8 9 8 9 10 12 9 6 9 9 5 10 15 12 14 16 12 8 6 3 4 6 5 6 9 8 9 14 17 15 12 11 11 11 10 6 5 8 6 4 5 5 6 9 6 3 4 8 11 10 9 13 14 13 16 20 19 17 15 15 15
19 4 3 15 24 32 32 16 5 5 6 10 11 9 8 5 6 11 13 13 10 6 2 1 3 5 5 6 8 9 10 8 10 10 6 10 12 7 12 20 18 18 15 10 12 10 2 2 6 5 4 5 3 3 5 9 13 13 10 10 9 8 8 8 10 7 6 7 6 5 8 5 2 3 4 3 5 7 15 17 13 16 19 15 14 16 16 14
15 3 5 18 26 34 28 7 2 5 3 8 13 12 9 5 5 7 9 11 8 3 2 1 2 6 7 6 5 8 11 9 11 13 9 11 13 12 19 26 21 18 13 8 11 10 4 2 5 3 1 1 2 3 4 2 7 11 9 9 9 9 10 8 5 3 4 7 7 6 8 5 2 2 4 4 5 4 10 16 15 15 17 17 17 16 15 11
12 5 8 22 33 35 22 4 6 8 4 5 9 10 11 7 5 7 8 9 7 4 4 4 3 4 5 5 5 7 8 7 9 12 9 9 9 9 21 32 27 16 12 11 11 11 7 4 6 5 1 0 1 1 1 1 5 8 9 12 12 13 12 5 1 1 4 8 10 8 8 8 5 2 2 3 7 8 7 13 17 17 18 18 16 16 14 9
10 5 4 17 31 34 18 3 4 8 6 7 7 10 11 6 6 11 10 8 8 7 4 4 6 4 4 5 6 8 9 6 4 7 5 5 3 0 11 28 30 18 16 23 23 16 9 6 8 10 8 8 7 6 5 6 6 6 9 15 16 17 18 10 5 7 8 9 12 10 8 9 7 5 4 3 6 7 6 10 13 14 16 18 17 14 11 8
6 3 1 6 16 22 15 4 2 3 5 8 6 8 11 7 6 10 10 7 7 7 4 3 4 4 3 6 5 7 11 9 5 4 4 4 2 2 2 14 22 20 21 29 28 15 5 5 9 11 11 11 8 4 2 5 9 10 12 17 19 19 21 16 10 10 9 9 10 10 10 11 10 9 8 5 5 5 5 5 8 11 13 14 13 10 7 7
3 4 4 4 3 6 8 6 4 2 5 9 6 6 12 11 6 7 8 6 4 6 4 3 3 5 5 6 6 5 8 9 6 7 10 9 4 1 1 2 12 19 18 24 28 15 2 6 11 11 13 11 4 4 5 7 10 15 17 20 21 20 21 18 13 11 10 9 11 12 13 13 13 12 9 6 5 5 4 5 9 14 14 10 7 5 7 10
2 3 8 12 6 2 5 7 7 6 6 9 7 6 12 13 9 7 7 5 3 5 5 3 6 9 8 7 7 6 7 8 7 7 9 8 5 3 4 4 5 13 8 9 20 13 3 8 14 13 17 16 7 6 7 7 8 11 14 17 19 20 21 19 18 16 13 12 12 12 15 16 17 15 9 5 4 4 3 4 8 12 12 9 6 7 10 12
2 2 6 14 7 2 6 7 7 8 7 8 7 7 11 14 14 10 6 4 3 6 7 7 8 10 11 9 8 8 8 8 9 7 7 9 8 6 6 4 4 10 6 3 8 6 2 7 13 15 16 17 13 9 8 9 8 9 11 12 13 16 20 20 19 18 16 12 7 7 11 14 15 11 6 4 3 2 2 5 6 6 6 7 9 10 12 15
1 3 2 9 3 1 6 7 6 7 8 8 7 7 8 12 15 12 8 8 7 6 8 12 11 9 10 10 10 12 12 11 11 11 9 9 8 6 7 6 6 10 10 6 5 5 4 5 10 12 11 14 16 14 12 12 11 12 13 14 14 14 16 18 17 16 14 10 7 8 7 9 11 8 4 6 8 7 8 10 10 10 10 10 12 13 15 18
5 3 2 2 2 3 5 5 6 6 6 8 9 8 8 12 15 12 10 14 15 10 11 16 15 9 8 10 11 14 15 14 15 17 16 15 14 14 11 7 7 10 9 7 6 5 4 4 6 8 8 9 14 17 17 15 13 15 17 16 15 14 12 13 13 13 13 12 10 9 7 8 10 6 5 10 14 13 11 12 14 17 19 19 18 18 20 21
8 6 3 2 2 5 6 3 5 7 7 8 10 10 9 12 13 11 9 12 17 17 16 16 15 10 8 10 14 18 20 16 14 16 21 23 20 16 12 9 11 12 9 7 6 5 6 5 4 5 6 7 10 14 16 15 13 14 13 14 16 15 14 13 11 13 14 12 10 9 9 12 9 6 8 16 17 15 15 16 19 21 24 23 23 24 26 25
Wind_Direction
236 237 238 237 236 235 236 236 237 238 239 239 238 238 240 238 233 227 227 228 224 224 224 221 222 225 227 231 234 237 242 247 251 250 245 243 242 240 237 238 236 231 236 247 259 268 263 264 255 245 241 247 247 240 245 238 235 258 241 236 259 253 250 315 286 228 111 128 148 163 171 172 148 164 189 157 175 169 147 162 186 184 169 223 197 184 208 186
233 234 236 236 235 234 234 235 235 236 237 238 237 237 239 238 235 229 225 227 225 223 224 220 218 221 224 228 232 235 242 248 252 252 247 243 242 243 241 237 235 229 231 239 241 250 254 250 243 234 230 242 234 215 234 221 205 234 242 245 243 260 308 342 315 355 61 116 149 158 188 199 148 158 175 179 191 181 181 186 191 196 184 217 220 207 223 214
231 231 233 234 234 233 232 232 232 233 235 236 236 235 237 237 235 231 224 224 226 225 226 224 218 216 219 224 229 232 241 252 253 249 245 242 240 241 242 238 233 228 226 230 227 235 252 254 247 238 227 236 233 205 209 217 211 220 225 256 242 311 342 328 327 20 42 36 139 150 181 201 139 148 170 208 212 182 192 193 188 197 192 208 226 219 223 223
231 229 230 231 232 232 230 230 228 229 231 234 235 234 235 236 235 233 225 222 224 226 228 228 223 217 213 217 226 230 239 254 253 249 244 239 238 236 240 239 231 227 226 225 220 221 242 254 251 254 242 236 236 221 204 197 197 206 206 244 258 9 4 309 343 35 44 4 6 126 144 215 161 150 172 205 236 203 209 200 192 199 195 202 217 219 220 226
231 228 227 229 230 230 229 229 228 227 228 230 232 232 232 233 234 234 229 223 222 225 228 229 226 221 214 212 221 226 231 252 257 250 246 241 238 235 236 238 232 226 226 224 222 218 220 242 243 249 254 245 242 238 220 203 201 226 229 246 265 297 354 8 23 45 61 343 310 125 145 196 156 165 194 210 242 147 121 163 168 165 174 193 203 207 209 224
232 229 227 227 228 228 228 229 228 227 227 225 227 229 229 230 232 234 232 226 222 223 226 229 226 222 218 212 216 216 215 232 286 248 245 241 238 237 235 235 233 229 226 222 221 221 217 228 233 230 236 239 246 248 227 210 209 240 245 241 257 259 261 339 24 32 41 268 263 264 1 121 142 201 210 216 233 164 87 93 140 127 118 165 191 202 202 221
232 229 227 227 226 226 228 228 227 227 227 225 224 226 227 227 230 232 232 229 224 221 222 226 225 222 219 218 218 212 216 228 232 239 324 258 234 232 236 234 231 229 224 218 216 217 213 216 223 226 225 226 245 253 242 226 216 226 244 241 250 241 236 256 76 202 263 258 281 345 1 289 213 242 206 210 226 226 261 289 197 175 147 144 176 210 222 227
231 229 227 227 227 226 227 227 226 225 227 226 223 223 224 225 228 230 230 230 226 220 218 220 224 222 218 219 219 217 226 231 233 240 257 297 245 221 227 232 228 226 221 216 214 213 211 212 215 221 225 233 242 245 249 247 226 224 236 251 261 249 225 217 174 186 212 243 290 328 309 271 261 270 242 223 228 234 246 252 245 224 207 191 190 210 225 225
229 228 226 227 227 226 226 226 225 224 225 225 223 221 221 222 225 228 228 229 227 221 217 216 220 222 218 220 219 224 232 232 235 240 242 255 270 226 217 224 223 221 219 216 213 210 211 213 213 218 226 244 246 247 256 261 236 222 224 237 260 258 219 205 211 200 207 228 243 254 256 261 256 255 267 250 243 242 237 236 238 231 230 230 214 212 222 226
226 226 225 226 227 227 226 225 224 224 224 223 223 221 220 219 221 225 226 226 226 222 218 216 217 218 219 218 217 230 232 231 235 237 235 240 254 246 221 222 221 217 217 216 213 208 209 211 210 219 236 250 248 254 263 265 265 250 234 233 249 252 230 210 217 213 211 219 221 230 251 255 246 225 250 252 245 237 231 224 219 222 229 230 221 217 223 228
221 222 222 224 225 226 226 225 224 225 225 223 222 222 219 218 218 220 222 223 225 224 219 216 215 216 219 216 215 228 229 229 232 227 225 227 235 245 232 223 220 217 216 214 213 210 209 211 207 214 232 243 241 255 259 253 265 267 256 253 254 254 244 215 207 219 221 216 217 226 259 261 247 220 228 247 253 232 225 219 216 225 227 224 224 221 222 227
217 218 220 222 224 225 225 225 225 225 226 225 224 222 219 218 218 218 218 221 223 224 221 216 214 216 218 219 222 226 225 228 234 224 223 224 225 233 236 223 218 218 215 212 214 212 210 212 209 211 216 221 231 252 262 251 257 266 268 267 259 261 250 213 196 217 221 216 210 208 266 258 242 243 235 240 250 237 224 221 220 225 225 223 225 223 223 227
215 216 218 221 222 223 223 222 223 225 225 224 224 223 221 218 217 217 217 219 221 223 223 217 214 215 216 223 228 227 223 222 223 217 220 223 222 223 229 228 218 217 215 211 214 214 212 213 212 216 219 224 238 240 294 294 262 259 270 266 252 262 251 210 201 216 220 222 199 167 239 239 233 244 238 233 236 230 220 217 216 219 222 225 226 226 225 228
213 214 215 219 221 221 222 221 222 225 224 224 224 223 222 218 215 216 216 217 218 219 221 218 214 213 217 228 232 229 226 224 221 211 210 217 220 218 224 232 221 213 215 213 212 214 216 217 219 223 225 224 239 299 305 311 280 237 250 257 240 248 244 210 203 203 216 216 188 166 236 243 250 252 248 240 227 221 222 219 219 221 224 229 228 229 228 229
216 215 214 217 220 220 221 221 221 223 224 223 222 223 222 220 215 213 215 217 217 217 218 218 215 210 216 233 236 234 230 229 226 218 209 212 213 211 215 223 222 209 212 214 210 215 218 218 225 231 229 218 224 272 256 268 272 228 230 238 222 231 242 228 212 200 204 196 180 181 236 238 249 258 265 262 219 207 224 229 227 225 227 232 232 231 230 230
219 218 217 217 218 220 222 221 220 220 221 221 221 222 221 222 218 214 216 216 216 217 216 218 216 209 211 237 234 233 230 229 228 220 211 209 207 210 212 215 219 209 207 213 212 217 220 218 224 228 221 204 204 212 212 232 244 224 226 234 222 226 231 236 235 206 193 175 185 205 236 225 238 244 247 253 226 206 216 228 232 232 235 237 237 238 236 233
220 219 219 219 218 219 221 222 221 218 218 219 220 220 219 220 219 216 217 216 216 218 217 218 213 207 212 228 223 223 224 226 228 222 215 210 205 210 209 202 204 200 198 205 208 214 218 217 219 218 208 196 193 183 207 227 224 216 220 234 233 234 229 214 235 199 183 182 205 211 230 235 253 262 240 226 221 209 208 223 233 240 247 246 243 243 242 242
218 220 220 220 219 219 220 221 222 219 217 216 218 220 219 219 218 218 218 216 217 220 223 219 206 200 214 222 220 218 222 224 223 220 218 213 211 214 209 202 199 195 193 195 201 202 202 205 217 219 195 198 202 187 208 219 209 208 213 226 232 234 237 223 210 166 172 202 217 205 222 230 238 260 250 227 219 211 213 226 230 236 243 244 244 243 242 243
216 218 220 220 220 220 220 220 220 220 217 215 217 218 219 220 219 221 219 217 215 213 221 206 196 195 234 221 220 216 222 225 215 212 214 212 215 217 212 205 196 188 184 180 192 189 177 167 205 220 202 201 203 200 213 214 192 212 222 230 230 227 234 231 222 177 177 206 217 209 222 226 226 240 245 245 240 226 220 224 226 234 240 241 242 241 239 239
223 221 221 221 222 221 220 220 220 219 217 214 213 214 216 211 210 223 220 219 220 215 217 200 199 210 227 219 220 215 213 221 211 205 207 209 210 211 205 193 183 179 176 165 180 182 177 173 202 210 205 204 203 206 215 217 217 225 231 238 236 237 232 230 233 185 182 207 215 214 229 232 231 233 235 238 239 237 233 229 227 229 234 236 238 242 243 243
228 227 225 225 224 222 222 220 220 218 214 213 212 210 210 201 191 211 213 217 225 220 223 223 205 215 223 225 241 219 209 206 204 200 203 204 200 199 195 185 176 178 182 171 150 163 181 200 211 205 205 205 204 209 212 214 224 228 233 241 240 244 239 234 227 164 179 215 210 212 234 239 239 243 244 237 233 238 239 239 238 236 238 236 233 238 243 247
230 230 229 229 228 226 224 221 221 218 212 213 214 213 216 211 202 201 203 213 231 225 224 227 215 218 225 227 246 206 197 195 197 198 199 196 189 185 183 184 185 176 180 174 142 158 195 219 215 207 202 205 209 212 211 213 220 224 230 243 246 244 243 241 220 158 174 222 217 223 249 249 248 248 251 249 242 242 243 244 247 247 250 248 243 242 243 247
232 232 230 230 230 229 226 223 221 218 212 213 215 215 219 218 211 215 214 211 237 225 220 224 221 221 227 228 228 199 188 192 192 193 194 189 186 185 179 180 192 183 180 183 175 183 200 217 216 209 197 204 215 215 213 217 220 222 225 231 242 242 236 234 220 157 150 182 228 276 275 264 269 265 257 254 251 249 246 247 249 249 252 253 253 254 251 249
232 232 231 231 230 230 229 225 221 218 215 215 218 218 219 218 215 221 227 259 274 221 217 220 220 223 229 229 224 209 195 199 197 191 189 183 181 187 185 183 190 192 190 188 189 197 212 214 207 202 199 206 214 213 209 214 221 225 224 225 233 234 227 220 200 143 147 182 212 280 287 269 255 254 249 250 254 252 244 242 246 246 247 249 251 253 253 251
232 231 232 229 228 229 227 226 223 220 216 217 220 219 217 213 214 221 221 259 282 210 213 215 213 222 225 225 223 209 200 209 207 196 191 187 184 184 188 190 190 200 197 191 193 205 223 214 187 190 205 209 211 212 207 208 220 226 221 222 229 230 229 219 186 163 171 216 195 175 267 270 226 235 235 225 237 245 239 236 240 242 243 246 248 250 251 251
231 231 231 227 226 226 223 226 225 220 219 222 220 216 216 213 215 220 207 309 256 181 182 195 197 215 216 214 208 195 199 217 214 206 196 196 195 187 185 190 194 208 197 190 198 207 221 209 191 196 206 207 211 215 210 206 219 231 213 214 226 228 227 224 206 194 193 226 190 176 219 267 239 238 246 233 231 238 236 229 232 237 240 242 244 247 250 250
230 228 228 227 222 217 218 224 223 217 217 223 219 212 214 213 215 214 194 268 242 161 152 175 179 198 205 203 188 176 179 191 201 214 201 197 197 192 194 188 183 211 193 181 205 193 193 201 200 204 205 206 211 214 209 203 213 229 209 203 214 216 218 225 229 226 198 108 244 199 212 272 270 244 238 247 254 254 249 238 227 226 229 235 239 243 245 247
229 226 226 224 220 217 219 222 221 217 215 220 219 209 209 210 207 198 187 247 199 135 145 172 177 188 191 190 184 183 175 161 179 215 201 197 195 189 202 198 188 198 187 183 204 189 187 199 203 203 201 206 213 214 205 200 216 225 166 186 205 210 220 233 242 240 121 92 220 223 192 272 269 233 200 225 237 243 245 240 233 222 222 227 231 236 241 243
229 226 224 221 221 221 222 224 223 223 219 218 215 207 206 201 189 175 219 245 140 116 143 160 174 178 169 173 183 191 208 184 179 190 190 197 197 189 200 204 199 196 189 197 206 186 179 199 207 207 206 210 214 215 203 204 216 156 118 151 181 189 214 235 243 229 67 150 219 215 188 236 269 247 190 215 222 229 236 233 233 229 226 229 230 232 237 241
227 227 223 219 219 218 220 225 224 226 221 213 207 201 197 185 165 176 231 219 93 139 145 156 166 154 153 164 181 189 199 219 186 172 178 191 198 197 193 196 202 201 194 205 212 214 17 89 149 219 218 222 220 212 207 213 206 143 128 138 113 106 181 269 287 100 98 234 221 217 207 215 263 258 190 217 225 213 215 219 228 223 223 231 235 236 238 240
223 225 222 216 216 214 213 220 220 216 210 205 198 189 181 168 163 221 217 118 41 181 159 162 161 149 158 170 171 183 192 206 191 173 173 183 197 197 182 186 198 197 197 201 210 229 253 199 72 238 217 222 231 215 208 222 187 163 155 141 112 45 10 2 359 131 200 232 216 222 220 215 244 252 166 210 298 166 182 184 184 181 204 225 235 239 239 238
217 219 221 217 215 215 213 217 217 206 199 202 192 175 164 168 214 221 209 68 52 204 163 153 163 157 165 170 168 176 183 193 195 185 172 174 194 192 186 190 178 175 194 188 190 211 231 226 197 223 211 181 194 215 181 47 95 197 166 143 159 180 177 205 209 190 217 230 214 217 222 222 241 252 238 237 48 60 316 245 203 188 211 227 233 236 232 228
214 213 217 215 214 216 215 219 217 203 196 195 180 160 160 228 210 200 221 188 203 264 169 158 169 169 166 169 176 175 177 188 189 189 184 181 194 195 195 197 186 190 196 181 185 187 220 229 203 209 221 172 172 180 184 155 167 187 171 165 182 185 189 207 208 208 218 228 224 223 246 241 241 246 233 232 233 206 195 213 241 242 230 226 219 218 222 226
210 210 211 212 213 215 214 217 216 206 196 184 169 157 193 228 197 193 211 218 324 303 206 169 168 170 172 175 177 171 176 193 185 185 187 185 196 200 199 201 196 198 154 171 191 180 205 228 196 191 181 167 180 191 191 177 171 188 184 182 194 191 199 208 201 205 212 223 214 210 242 215 202 233 212 215 226 218 201 199 217 233 237 226 214 228 247 247
206 207 207 209 213 213 211 212 212 206 191 175 163 178 201 205 206 204 205 205 253 278 245 206 174 172 180 182 180 177 178 190 186 187 193 189 195 195 195 200 197 193 164 170 191 179 208 231 184 188 185 165 183 199 182 150 165 194 181 208 216 202 209 228 211 193 185 205 209 200 229 218 225 293 285 211 218 215 213 216 219 226 233 233 234 247 260 258
198 201 202 207 210 209 208 207 208 202 185 171 172 211 197 207 210 194 194 192 192 176 206 231 195 177 177 179 185 185 183 182 178 185 202 198 202 199 194 193 191 192 183 181 191 168 202 226 161 179 190 182 186 187 170 162 169 181 187 208 214 201 221 234 253 163 162 198 209 194 229 257 275 285 261 220 202 204 210 216 219 221 226 233 241 249 257 254
190 194 199 205 208 206 202 203 205 196 183 175 198 207 194 214 212 198 220 194 186 175 171 228 209 177 172 175 183 185 183 181 176 184 200 194 202 203 198 195 188 191 191 189 211 190 192 219 163 169 189 199 190 179 179 190 179 160 197 196 172 34 349 228 230 218 188 213 214 202 219 213 216 253 228 204 209 205 195 202 214 219 223 230 238 245 249 243
186 191 199 204 207 203 198 202 199 189 184 183 209 208 197 203 209 212 232 212 193 187 190 229 211 177 180 179 178 178 174 178 179 184 196 191 199 194 190 193 187 190 194 188 198 222 194 219 189 179 188 191 181 173 188 207 181 112 215 191 147 153 198 179 208 206 200 220 218 221 231 212 201 230 223 204 207 200 193 204 213 216 220 225 231 238 239 235
180 186 204 208 205 200 198 199 188 180 181 197 210 210 198 196 212 214 203 203 256 212 199 209 215 210 198 185 177 174 173 180 178 178 194 190 199 191 183 184 186 188 189 183 180 209 196 208 226 196 186 169 169 180 191 199 168 70 312 209 146 197 200 189 202 199 198 213 220 229 236 222 213 229 232 222 211 196 195 203 208 213 214 213 216 223 227 227
175 178 214 211 202 200 198 191 178 174 182 207 206 201 180 197 217 221 212 195 211 237 213 205 203 212 207 193 185 175 178 186 179 180 193 176 183 201 184 178 180 184 185 184 188 193 186 211 220 195 181 170 179 195 189 190 182 160 185 189 173 193 212 205 213 211 199 207 219 235 241 231 209 219 226 222 212 194 188 193 204 212 211 211 214 217 215 206
175 179 233 207 202 197 191 183 174 178 199 206 214 201 185 200 210 220 221 206 198 218 227 228 209 208 220 204 190 176 181 191 183 185 196 180 187 203 184 182 177 174 182 187 200 203 183 202 200 182 186 189 195 202 198 196 190 184 190 190 186 187 177 193 215 211 202 208 208 228 247 243 204 219 229 217 214 204 190 189 197 205 209 213 211 198 184 173
176 194 194 194 198 189 181 180 177 179 195 203 206 197 188 197 201 209 215 211 213 216 208 298 222 218 237 223 203 185 179 189 191 188 190 193 200 198 183 185 177 168 174 188 200 195 153 191 202 192 193 197 195 211 217 205 196 202 210 201 198 195 181 199 216 203 192 208 212 236 253 247 211 283 293 227 208 201 189 184 184 194 198 190 169 160 156 153
177 180 159 184 193 184 176 188 214 180 216 204 194 195 194 195 202 201 202 206 211 201 183 222 234 232 233 228 231 200 180 186 197 193 190 195 205 198 179 178 175 168 170 185 193 179 128 142 204 211 332 310 344 4 8 359 197 207 219 208 206 209 202 210 220 189 186 198 198 226 245 242 228 298 345 36 78 109 167 169 160 165 168 157 150 151 150 145
162 138 151 177 184 179 174 196 200 191 207 177 178 193 196 202 208 196 200 207 199 182 196 212 220 251 241 208 222 225 203 196 196 195 192 189 202 196 176 175 176 173 176 180 173 169 170 175 185 194 212 223 285 258 217 205 198 205 210 207 207 207 206 208 65 150 214 200 195 211 232 233 225 220 343 40 80 74 99 134 138 142 143 144 151 155 156 158
138 120 144 171 175 177 184 211 185 191 189 169 181 192 188 201 214 203 207 213 206 200 209 216 200 215 258 223 213 229 232 239 210 189 177 167 179 157 180 185 183 177 184 181 169 167 182 186 187 196 202 201 202 206 197 181 187 205 206 205 205 203 202 201 194 209 214 198 199 210 224 232 228 210 221 194 121 99 98 120 133 140 141 148 159 163 169 183
137 131 118 161 172 185 204 229 137 177 184 173 185 193 189 196 201 202 210 219 218 207 210 246 195 180 256 244 227 222 221 229 227 179 168 174 171 41 215 207 200 191 183 175 166 161 169 197 207 211 216 214 202 200 185 145 173 195 199 202 205 203 203 204 206 212 207 200 209 213 217 233 237 220 209 188 147 139 149 154 158 161 161 167 173 179 197 226
168 156 155 173 176 192 221 233 202 179 175 179 183 184 193 199 185 186 201 210 211 192 199 271 209 200 227 220 231 236 207 210 209 184 189 187 165 149 147 232 221 210 191 169 166 162 150 203 210 219 229 232 203 161 165 147 176 197 200 202 205 204 204 207 212 207 191 201 221 211 204 222 233 221 194 163 165 180 199 217 199 187 185 184 184 207 235 251
207 143 158 178 184 170 203 214 209 200 177 179 186 178 190 200 195 186 191 192 186 179 196 234 212 220 231 213 226 234 197 204 212 192 190 177 138 142 139 88 214 216 212 171 170 167 167 203 199 205 222 229 212 170 165 153 178 204 208 207 205 203 203 207 213 207 194 205 221 207 200 214 226 221 199 175 189 181 177 204 190 182 180 178 189 218 232 240
237 24 157 178 184 187 188 179 182 202 199 189 197 195 191 196 201 200 178 154 198 205 205 221 213 213 223 216 221 225 201 201 209 196 185 182 169 158 159 153 184 184 175 187 188 174 153 200 196 194 211 220 209 184 165 164 179 200 213 217 210 206 207 210 214 212 207 212 210 188 201 219 229 227 204 209 243 212 208 226 211 201 202 205 218 229 236 245
255 7 148 184 198 224 198 187 173 196 207 201 210 211 197 199 205 206 186 175 198 197 190 216 222 207 211 216 219 228 220 203 204 202 185 179 181 173 178 189 179 168 166 180 206 193 174 198 195 187 205 219 212 204 197 189 187 193 203 210 211 212 214 215 217 215 214 215 199 185 203 233 247 245 207 224 249 254 251 246 244 250 248 242 243 247 252 257
254 312 358 217 230 174 191 202 186 196 208 204 210 206 200 208 206 202 203 201 205 199 184 206 218 208 210 219 220 234 236 220 214 209 189 182 192 194 195 188 161 163 170 178 191 187 180 205 200 189 211 219 206 208 211 207 206 208 206 201 199 206 214 216 218 216 212 210 210 210 216 238 248 237 209 233 242 243 241 235 235 243 245 244 245 248 252 254
259 276 301 294 234 180 180 184 185 206 216 205 208 206 207 217 206 196 211 212 210 215 206 201 208 208 215 221 218 229 239 242 250 239 212 203 203 196 193 189 170 167 167 171 183 183 183 202 207 190 213 226 208 205 210 216 223 222 208 190 187 195 203 207 214 220 215 210 212 218 224 233 227 168 197 232 233 226 230 229 231 240 243 243 243 244 247 246